Location: Kershaw
(34.5481°N, 80.5823°W)
Time: 13:55:19
(UTC+00:00)

Transit 4A - Pass Details

Date: 11 October 2022
Orbit: 871 x 972 km, 66.8° (Epoch: 29 November)

Event Time Altitude Azimuth Distance (km) Brightness Sun altitude
Rises 23:29:30 0° 162° (SSE) 3,613 10.8 -8.3°
Reaches altitude 10° 23:32:58 10° 143° (SE) 2,655 10.0 -9.1°
Maximum altitude 23:36:48 17° 104° (ESE) 2,160 9.2 -9.9°
Enters shadow 23:40:07 11° 69° (ENE) 2,521 9.6 -10.5°
Drops below altitude 10° 23:40:35 10° 65° (ENE) 2,621 - -10.6°
Sets 23:43:57 0° 47° (NE) 3,548 - -11.3°
